Regional Weather Roundup
Issued by NWS

Home | Current Version | Previous Version | Graphics & Text | Print | Product List | Glossary On
Versions: 1 2 3 4 5 6 7 8 9 10 11 12 13 14 15 16 17 18 19 20 21 22 23 24 25 26 27
000
ASUS45 KSLC 242210
RWRUT

UTAH REGIONAL WEATHER ROUNDUP
NATIONAL WEATHER SERVICE SALT LAKE CITY UT
400 PM MDT TUE APR 24 2018

UTZ001>011-023>025-242300-

NORTHERN UTAH

CITY           SKY/WX    TMP DP  RH WIND       PRES   REMARKS
BRIGHAM CITY   SUNNY     63  22  21 NE8       30.27F
HILL AFB       NOT AVBL
LOGAN          SUNNY     59  32  36 MISG      30.28F
OGDEN          SUNNY     64  25  22 N7        30.24F
SALT LAKE CITY MOSUNNY   64  29  26 NW8       30.24F
TOOELE VALLEY  SUNNY     59  34  38 N7        30.27F
WENDOVER       SUNNY     63  22  20 E13       30.27F
HEBER CITY       N/A     61  19  20 N3        30.24F
WEST JORDAN    SUNNY     61  33  35 NW10      30.26F

$$

UTZ011>015-024>027-242300-

CENTRAL/NORTHEAST UTAH

CITY           SKY/WX    TMP DP  RH WIND       PRES   REMARKS
PROVO AIRPORT  MOSUNNY   64  27  24 NW12      30.25F
MOAB/CANYONLAN MOSUNNY   73  22  14 E21G31    30.08F
DELTA          SUNNY     64  14  14 NW7G16    30.22F
PRICE          SUNNY     65  14  14 MISG      30.19F
RICHFIELD      SUNNY     66  23  19 NE12G18   30.19F
ROOSEVELT      SUNNY     59  21  23 NE9       30.30F
VERNAL         SUNNY     59  21  23 NE18G24   30.29F

$$

UTZ013>016-019>022-027-242300-

SOUTHERN UTAH

CITY           SKY/WX    TMP DP  RH WIND       PRES   REMARKS
BRYCE CANYON   MOSUNNY   66  21  18 NW20G29   30.22F
CEDAR CITY     SUNNY     69  28  21 N13G20    30.17F
MILFORD        SUNNY     67  28  23 MISG      30.19F
ST GEORGE      CLEAR     84  26  12 VRB6      29.99F
HANKSVILLE     SUNNY     75  19  12 NE3       30.11F
KANAB          SUNNY     81  18   9 SW15      30.10S
BLANDING         N/A     73  21  14 NW9G17    30.16F

$$

REGIONAL REPORTS     COLORADO/ARIZONA

CITY           SKY/WX    TMP DP  RH WIND       PRES   REMARKS
CRAIG, CO      SUNNY     54  23  30 NW17      30.28F
GRAND JUNCTION MOSUNNY   68  23  18 NW18G28   30.15S
RIFLE, CO      PTSUNNY   61  21  21 NW16      30.20F
MONTROSE, CO   PTSUNNY   66  28  24 NW22G28   30.14F
CORTEZ, CO     MOSUNNY   74  19  12 NW13G25   30.09F
COLORADO CITY    N/A     81  23  12 W8G18     30.12F
PAGE, AZ       SUNNY     83  21  10 NE9       30.00F
GRAND CANYON   SUNNY     74  15  10 W14G26    30.16F
KINGMAN, AZ    SUNNY     88  21   8 W10       29.99F
FLAGSTAFF, AZ  SUNNY     71  13  10 SW14G20   30.18F

$$

REGIONAL REPORTS    NEVADA/IDAHO/WYOMING

CITY           SKY/WX    TMP DP  RH WIND       PRES   REMARKS
LAS VEGAS, NV  MOSUNNY   89  25  10 CALM      29.93F
ELY, NY        SUNNY     65   7  10 N15       30.22F
ELKO, NV       SUNNY     67  20  16 NE12G18   30.21F
POCATELLO, ID  MOSUNNY   62  35  36 N14       30.31F
BURLEY, ID     SUNNY     61  27  27 NE12G21   30.29F
FORT BRIDGER,    N/A     50  19  29 E7        30.39F
EVANSTON, WY   SUNNY     50  22  33 E13G20    30.34F
ROCK SPRINGS,  PTSUNNY   46  18  32 NE18G24   30.39S
KEMMERER, WY   SUNNY     50  18  27 E6        30.37F

$$




USA.gov is the U.S. government's official web portal to all federal, state and local government web resources and services.